SCP
0 0 0 0 0 0 0 0 0 0 0 0 0 0 0 0 0 0 0 0 0 0 0 0 0 0 0 0 0 0 0 0 0 0 0 0 0 0 0 0 0 0 0
0 0 0 0 0 0 0 0 0 0 0 0 0 0 0 0 0 0 0 0 0 0 0 0 0 0 0 0 0 0 0 0 0 0 0 0 0 0 0 0 0 0 0
0 0 0 0 0 0 0 0 0 0 0 0 0 0 0 0 0 0 0 0 0 0 0 0 0 0 0 0 0 0 0 0 0 0 0 0 0 0 0 0 0 0 0
0 0 0 0 0 0 0 0 0 0 0 0 0 0 0 0 0 0 0 0 0 0 0 0 0 0 0 0 0 0 0 0 0 0 0 0 0 0 0 0 0 0 0
0 0 0 0 0 0 0 0 0 0 0 0 0 0 0 0 0 0 0 0 0 0 0 0 0 0 0 0 0 0 0 0 0 0 0 0 0 0 0 0 0 0 0
0 0 0 0 0 0 0 0 0 0 0 0 0 0 0 0 0 0 0 0 0 0 0 0 0 0 0 0 0 0 0 0 0 0 0 0 0 0 0 0 0 0 0
0 0 0 0 0 0 0 0 0 0 0 0 0 0 0 0 0 0 0 0 0 0 0 0 0 0 0 0 0 0 0 0 0 0 0 0 0 0 0 0 0 0 0
0 0 0 0 0 0 0 0 0 0 0 0 0 0 0 0 0 0 0 0 0 0 0 0 0 0 0 0 0 0 0 0 0 0 0 0 0 0 0 0 0 0 0
0 0 0 0 0 0 0 0 0 0 0 0 0 0 0 0 0 0 0 0 0 0 0 0 0 0 0 0 0 0 0 0 0 0 0 0 0 0 0 0 0 0 0
0 0 0 0 0 0 0 0 0 0 0 0 0 0 0 0 0 0 0 0 0 0 0 0 0 0 0 0 0 0 0 0 0 0 0 0 0 0 0 0 0 0 0
0 0 0 0 0 0 0 0 0 0 0 0 0 0 0 0 0 0 0 0 0 0 0 0 0 0 0 0 0 0 0 0 0 0 0 0 0 0 0 0 0 0 0
0 0 0 0 0 0 0 0 0 0 0 0 0 0 0 0 0 0 0 0 0 0 0 0 0 0 0 0 0 0 0 0 0 0 0 0 0 0 0 0 0 0 0
0 0 0 0 0 0 0 0 0 0 0 0 0 0 0 0 0 0 0 0 0 0 0 0 0 0 0 0 0 0 0 0 0 0 0 0 0 0 0 0 0 0 0
0 0 0 0 0 0 0 0 0 0 0 0 0 0 0 0 0 0 0 0 0 0 0 0 0 0 0 0 0 0 0 0 0 0 0 0 0 0 0 0 0 0 0
0 0 0 0 0 0 0 0 0 0 0 0 0 0 0 0 0 0 0 0 0 0 0 0 0 0 0 0 0 0 0 0 0 0 0 0 0 0 0 0 0 0 0
0 0 0 0 0 0 0 0 0 0 0 0 0 0 0 0 0 0 0 0 0 0 0 0 0 0 0 0 0 0 0 0 0 0 0 0 0 0 0 0 0 0 0
0 0 0 0 0 0 0 0 0 0 0 0 0 0 0 0 0 0 0 0 0 0 0 0 0 0 0 0 0 0 0 0 0 0 0 0 0 0 0 0 0 0 0
0 0 0 0 0 0 0 0 0 0 0 0 0 0 0 0 0 0 0 0 0 0 0 0 0 0 0 0 0 0 0 0 0 0 0 0 0 0 0 0 0 0 0
0 0 0 0 0 0 0 0 0 0 0 0 0 0 0 0 0 0 0 0 0 0 0 0 0 0 0 0 0 0 0 0 0 0 0 0 0 0 0 0 0 0 0
0 0 0 0 0 0 0 0 0 0 0 0 0 0 0 0 0 0 0 0 0 0 0 0 0 0 0 0 0 0 0 0 0 0 0 0 0 0 0 0 0 0 0
0 0 0 0 0 0 0 0 0 0 0 0 0 0 0 0 0 0 0 0 0 0 0 0 0 0 0 0 0 0 0 0 -0 0 0 0 0 0 0 0 0 0 0
0 0 0 0 0 0 0 0 0 0 0 0 0 0 0 0 0 0 0 0 0 0 0 0 0 0 0 0 0 0 0 0 -0 0 0 0 0 0 0 0 0 0 0
0 0 0 0 0 0 0 0 0 0 0 0 0 0 0 0 0 0 0 0 0 0 0 0 0 0 0 0 0 0 0 0 0 0 0 0 0 0 0 0 0 0 0
0 0 0 0 0 0 0 0 0 0 0 0 0 0 0 0 0 0 0 0 0 0 0 0 0 0 0 0 0 0 0 0 0 0 0 0 0 0 0 0 0 0 0
0 0 0 0 0 0 0 0 0 0 0 0 0 0 0 0 0 0 0 0 0 0 0 0 0 0 0 0 0 0 0 0 0 0 0 0 0 0 0 0 0 0 0
0 0 0 0 0 0 0 0 0 0 0 0 0 0 0 0 0 0 0 0 0 0 0 0 0 0 0 0 0 0 0 0 0 0 0 0 0 0 0 0 0 0 0
Wind_Speed
1 1 4 7 8 9 10 11 11 11 11 11 11 12 12 12 12 12 12 12 12 12 12 12 12 13 13 13 13 13 13 13 13 13 12 12 13 13 13 13 11 8 13
2 2 5 7 8 9 10 10 10 10 11 11 11 11 11 11 11 12 12 12 11 11 11 11 12 12 12 12 13 13 13 12 12 12 11 10 11 12 12 11 11 8 12
3 2 5 8 9 9 10 10 10 10 11 11 11 11 11 11 11 11 11 11 11 11 11 11 11 11 11 12 12 12 12 12 11 11 10 5 6 11 11 11 11 11 11
4 3 4 9 9 10 10 10 10 10 10 11 11 10 10 10 10 10 10 10 10 10 10 10 10 10 10 10 11 11 10 10 11 10 5 4 4 9 10 9 9 9 9
4 3 4 9 9 10 10 10 10 10 10 10 10 10 10 10 10 10 10 10 10 10 10 10 10 9 9 9 9 9 9 9 9 7 4 4 3 7 8 8 8 8 8
4 3 4 9 9 9 9 10 9 9 10 10 10 10 10 10 10 9 9 9 9 9 9 9 9 9 8 8 8 8 8 8 6 4 4 3 2 6 7 7 7 6 6
4 3 4 9 9 9 9 9 9 9 9 9 9 9 9 9 9 9 9 9 8 8 8 8 7 8 8 8 7 7 7 6 4 3 3 2 2 5 5 5 4 4 5
5 4 4 8 9 9 9 9 9 9 9 9 9 9 9 9 9 8 8 8 8 8 8 8 7 7 6 6 6 6 5 5 4 3 2 2 3 3 3 3 3 3 3
4 5 4 4 6 8 9 9 9 9 9 9 9 9 9 8 8 8 8 7 7 7 7 7 7 6 6 6 6 6 5 5 3 1 2 1 3 3 3 3 2 2 2
4 4 4 4 4 4 5 8 9 9 9 9 9 9 9 8 8 8 7 7 7 7 7 7 6 6 6 6 6 5 5 4 2 1 1 1 3 3 3 3 2 2 1
4 3 3 4 4 4 4 6 7 8 8 8 7 9 7 4 4 5 6 7 7 7 7 7 6 6 6 6 6 6 5 2 1 1 1 2 3 2 2 2 2 2 2
3 2 2 3 3 4 4 4 3 4 4 4 4 4 3 3 3 5 6 8 7 7 7 7 7 6 5 3 4 5 2 2 1 1 1 3 2 3 3 3 2 2 2
3 2 2 2 3 3 3 3 2 2 3 3 4 3 3 3 3 3 2 3 4 5 4 5 4 3 3 2 2 2 2 2 1 1 2 3 3 3 3 3 3 2 2
3 2 2 2 3 3 3 2 2 2 2 2 2 3 3 2 2 2 2 2 2 2 2 3 2 3 3 2 2 2 2 2 2 2 2 5 4 4 3 3 3 2 2
3 2 2 2 3 3 3 2 2 2 2 2 2 2 2 2 2 2 1 2 2 2 2 2 2 3 3 2 2 2 2 2 2 2 2 5 5 4 4 4 4 3 2
3 2 2 2 2 3 2 2 2 2 2 2 2 2 2 2 2 1 1 1 2 2 2 1 1 2 2 2 2 2 2 2 2 2 2 3 5 5 5 5 5 4 4
4 3 2 3 2 2 2 2 2 2 2 2 1 1 2 2 2 1 1 1 1 1 1 1 2 2 2 2 2 2 2 1 2 2 2 2 2 5 6 6 6 5 5
3 3 2 3 3 3 2 2 1 2 2 1 1 1 1 2 2 1 1 0 1 1 1 1 1 2 2 2 2 2 2 2 2 2 1 2 2 2 4 6 6 6 6
4 3 3 3 3 3 2 2 2 2 2 1 1 1 1 1 2 1 1 0 1 1 1 1 1 1 1 2 2 2 2 2 2 2 1 2 2 2 2 4 6 6 7
4 3 3 3 3 3 2 2 2 2 1 1 1 1 1 1 1 1 1 1 1 1 1 1 1 1 1 1 2 2 2 2 2 2 2 2 2 2 2 2 3 4 7
3 3 3 4 3 3 2 2 1 1 0 1 1 1 1 1 1 1 1 1 1 1 0 1 0 1 1 2 2 3 3 2 1 1 1 1 2 2 2 2 2 2 3
4 4 4 3 3 3 2 2 1 1 1 1 0 1 1 1 1 0 1 1 1 0 1 1 1 0 1 1 1 1 3 3 2 2 2 2 2 2 2 3 2 3 2
4 5 4 4 4 3 2 2 2 2 2 1 1 1 1 0 0 0 0 0 1 1 1 1 1 1 1 1 1 0 0 2 4 3 2 2 2 2 2 3 3 3 3
5 4 4 4 3 3 3 3 4 2 1 1 1 0 1 1 1 0 0 0 0 1 1 1 1 1 1 1 1 1 1 1 2 4 3 2 3 2 3 3 3 3 3
4 4 4 4 3 3 3 3 3 2 1 1 1 1 1 1 1 1 1 0 0 0 1 1 1 1 1 2 1 1 1 1 2 2 4 5 3 2 3 3 3 3 3
3 3 3 4 3 3 3 3 3 3 3 2 1 1 0 1 1 1 1 0 0 0 1 1 1 1 1 1 1 1 1 1 2 2 4 4 5 4 3 2 2 3 3
Wind_Direction
223 230 136 116 113 107 100 95 91 90 91 93 93 92 90 89 87 85 82 80 79 78 76 76 76 75 77 77 76 74 73 73 73 72 72 72 74 74 71 70 66 61 68
165 178 139 123 117 110 104 98 93 91 91 92 93 92 91 90 88 85 82 78 76 76 75 75 76 77 78 77 76 74 73 74 74 70 67 68 73 75 74 72 69 67 69
123 143 140 127 121 115 109 104 99 95 92 91 91 92 92 90 88 85 83 81 78 76 75 75 79 80 80 79 77 74 74 73 74 71 62 47 62 74 74 72 70 67 67
119 119 127 126 123 118 113 108 103 98 95 91 90 90 90 90 88 85 84 81 79 76 74 74 77 81 82 81 78 76 75 74 73 66 49 39 47 72 73 70 68 66 65
101 103 130 125 123 118 115 112 107 103 100 94 93 90 87 86 87 87 86 83 79 77 76 73 75 79 81 81 79 77 75 75 69 58 43 37 40 67 71 70 65 63 65
96 91 121 120 120 120 117 112 108 105 102 97 94 91 88 85 85 85 84 83 82 81 79 75 74 76 77 80 80 77 75 75 64 51 41 31 33 63 66 68 66 63 64
102 93 115 117 116 115 115 112 107 102 100 97 93 90 88 86 83 82 81 80 79 79 79 76 74 74 73 73 76 77 76 76 67 52 40 28 32 58 63 65 66 66 61
103 94 100 111 110 110 108 107 106 102 99 96 92 88 85 83 81 81 79 78 76 75 73 72 73 72 68 67 67 72 76 74 68 51 31 22 32 42 54 60 59 60 59
89 87 87 99 102 102 100 97 96 96 95 93 90 85 80 77 77 77 75 75 74 72 68 65 65 64 62 61 60 60 65 67 65 38 18 13 23 18 26 38 48 57 60
79 80 84 89 89 91 93 91 90 89 87 86 83 79 75 69 67 66 61 63 64 62 59 56 55 55 53 53 52 51 48 46 49 25 2 352 8 2 2 20 34 27 29
89 75 86 90 89 91 94 88 84 84 82 81 78 77 72 59 53 52 49 52 53 53 51 48 46 47 46 45 43 41 39 32 26 359 329 348 359 357 347 354 14 15 2
132 107 93 102 102 98 97 89 79 81 79 77 74 75 68 61 51 53 47 46 44 44 43 41 37 38 37 29 30 33 30 15 15 339 324 345 347 346 337 335 333 338 344
149 122 99 108 109 104 98 96 79 76 78 77 77 78 75 66 52 46 44 36 31 35 34 30 30 26 29 25 22 23 20 14 5 342 336 343 334 327 319 319 322 323 337
145 139 115 112 110 109 108 105 100 91 87 84 80 82 81 73 60 47 40 29 27 21 24 26 24 24 30 27 27 23 15 9 359 346 343 348 338 326 315 308 313 310 321
151 146 144 120 115 117 114 112 107 106 105 102 96 87 87 92 81 67 45 32 23 17 17 19 25 23 22 19 17 17 2 356 351 346 341 349 346 338 326 318 314 313 305
160 158 144 123 121 121 119 122 117 115 112 101 97 94 94 96 96 83 59 38 22 12 5 13 18 19 11 13 8 358 343 339 346 341 333 338 346 343 330 319 313 311 307
167 158 145 137 119 122 126 130 120 114 104 98 93 95 95 93 98 95 83 41 11 11 23 32 24 26 21 11 356 342 339 332 325 323 319 324 331 341 338 325 315 308 303
151 152 150 139 127 122 117 114 117 112 107 100 92 91 91 93 96 95 87 34 9 26 37 35 33 19 8 360 342 331 332 325 317 311 316 322 325 329 336 339 330 319 313
160 158 147 128 127 125 113 101 95 94 94 97 92 87 88 92 96 104 101 38 37 52 41 28 22 15 355 343 327 329 329 320 310 319 322 321 318 323 322 338 338 333 323
155 150 146 128 123 120 110 99 92 87 84 83 86 84 89 93 92 104 96 36 54 64 35 28 21 9 357 330 330 330 315 305 311 314 300 311 314 320 323 329 330 329 327
140 143 156 143 140 129 118 120 124 134 124 93 81 71 70 83 101 117 102 75 68 84 33 12 51 32 1 353 3 334 322 314 322 311 314 316 316 313 320 321 319 318 320
167 165 168 161 155 151 148 146 138 126 119 119 59 54 45 46 52 79 135 165 166 129 69 44 51 25 340 11 21 348 330 332 329 324 320 323 315 315 319 321 311 310 305
178 178 177 174 163 155 138 110 95 81 67 58 24 6 344 342 71 94 160 198 205 176 193 218 203 164 291 323 352 141 256 281 310 306 303 310 319 324 313 309 309 308 310
195 179 170 165 159 153 144 140 140 141 156 194 199 204 351 9 32 53 116 153 223 233 223 237 230 237 203 268 304 300 242 231 274 305 306 306 315 316 319 323 314 309 313
180 168 166 155 145 143 138 147 145 132 140 120 100 80 34 7 23 30 42 88 106 301 296 281 266 257 229 230 246 282 292 301 260 261 293 308 312 298 302 302 305 308 308
149 152 153 152 150 143 136 136 141 141 135 126 121 121 25 347 355 6 11 4 347 320 295 292 289 284 269 272 267 251 244 258 275 270 277 293 298 298 299 293 296 304 305